Location: *
(28.3744°N, 81.5492°W)
Time: 03:26:57
(UTC+00:00)

Cosmos 1833 Rocket - Pass Details

Date: 15 June 2025
Orbit: 832 x 838 km, 71.0° (Epoch: 11 July)

Event Time Altitude Azimuth Distance (km) Brightness Sun altitude
Rises 06:24:16 0° 350° (N) 3,382 6.6 -36.5°
Reaches altitude 10° 06:26:52 10° 357° (N) 2,444 5.8 -36.3°
Enters shadow 06:30:44 35° 34° (NNE) 1,326 4.1 -36.1°
